sat.trackr.live / text

‹ back to catalog

STARLINK-32502

NORAD 62116 · 2024-222C

PAYLOAD ACTIVE UNKNOWN

§ Identity

Operator
Country
US
Launch date
2024-11-27
Launch site
AFETR
Launch vehicle
Mass (kg)
RCS (m²)

Purposes: comms

External: N2YO · Heavens-Above · Gunter

§ Orbital elements

Epoch: 2026-05-25T03:58:00.657696Z

Period
94.27 min
Inclination
43.0044°
Eccentricity
0.0001300
Mean motion
15.27601356 rev/d
Perigee alt
482.1 km
Apogee alt
483.9 km
Semi-major
6,861.1 km
B*
6.3193e-4
RAAN
64.3995°
Arg perigee
266.2722°
Mean anomaly
93.7981°
Rev number
8,450

§ Raw data

STARLINK-325021 62116U 24222C   26145.16528539  .00017179  00000+0  63193-3 0  99942 62116  43.0044  64.3995 0001300 266.2722  93.7981 15.27601356 84500

JSON: /api/v1/satellites/62116 · /tle

For live sub-satellite position, see the globe view (requires WebGL).

§ Visibility from observer

Set your observer location to see the next 7 days of passes ≥ 10°. The values pass through the URL so the page stays shareable.

No JS? Fill the form by hand. The geolocation button needs JavaScript.